Retour au catalogue

COSMOS 397 DEB

ActifLEO
NORAD 5015·DEBRIS·🇷🇺 Russia

Lancé Feb 25, 1971 depuis Baikonur Cosmodrome

Loading…

Prochains Passages (prochaines 24 heures)

TLE

FraisSource: Space-Track

Époque: Sep 14, 2026, 14:19 UTC

1 05015U 71015J   26257.59683751  .00001648  00000-0  47525-3 0  9996
2 05015  65.7084   1.8463 0642361 283.9634  69.0833 13.67602549677015

Suivez COSMOS 397 DEB en temps réel avec AllMySat

Download on the App Store